FW6993 Weather Reports


time (UTC)temp
F
wind
direction
speed
knots
gust
knots
rain 1hr
in
rain 24hr
in
rain mn
in
humidity
%
barometer
mb
20260510122706 72 270 0.0 0.0 0.00 0.00 0.00 99 1018.0
20260510122202 72 272 0.0 0.0 0.00 0.00 0.00 99 1017.9
20260510121653 71 272 0.0 0.0 0.00 0.00 0.00 99 1017.7
20260510121150 71 272 0.0 0.0 0.00 0.00 0.00 99 1017.7
20260510120648 71 272 0.0 0.0 0.00 0.00 0.00 99 1017.9
20260510120144 71 272 0.0 0.0 0.00 0.00 0.00 99 1017.8
20260510115640 71 272 0.0 0.0 0.00 0.00 0.00 99 1017.5
20260510115138 71 272 0.0 0.0 0.00 0.00 0.00 99 1017.5
20260510114633 71 274 0.0 0.0 0.00 0.00 0.00 99 1017.7
20260510114130 71 274 0.0 0.0 0.00 0.00 0.00 99 1017.7
20260510113625 71 274 0.0 0.0 0.00 0.00 0.00 99 1017.5
20260510113123 70 274 0.0 0.0 0.00 0.00 0.00 99 1017.4
20260510112619 70 274 0.0 0.0 0.00 0.00 0.00 99 1017.4
20260510112115 70 274 0.0 0.0 0.00 0.00 0.00 99 1017.1
20260510111612 70 274 0.0 0.0 0.00 0.00 0.00 99 1017.3
20260510111108 70 270 0.0 0.0 0.00 0.00 0.00 99 1016.9
20260510110604 70 269 0.0 0.0 0.00 0.00 0.00 99 1016.9
20260510105556 70 269 0.0 0.0 0.00 0.00 0.00 99 1016.7
20260510105045 70 250 1.7 1.7 0.00 0.00 0.00 99 1016.6
20260510104542 70 273 0.0 0.0 0.00 0.00 0.00 99 1017.0
20260510104039 70 273 0.0 0.0 0.00 0.00 0.00 99 1016.8
20260510103536 70 273 0.0 0.0 0.00 0.00 0.00 99 1016.8
20260510103032 70 273 0.0 0.0 0.00 0.00 0.00 99 1016.3
20260510102528 70 273 0.0 0.0 0.00 0.00 0.00 99 1016.7
20260510102024 70 274 0.0 0.0 0.00 0.00 0.00 99 1016.6
20260510101522 70 274 0.0 0.0 0.00 0.00 0.00 99 1016.4
20260510101021 70 274 0.0 0.0 0.00 0.00 0.00 99 1016.6
20260510100516 70 269 0.0 0.0 0.00 0.00 0.00 99 1016.6
20260510100013 70 269 0.0 0.0 0.00 0.00 0.00 99 1016.4
20260510095509 70 270 0.0 0.0 0.00 0.00 0.00 99 1016.4
20260510095008 70 270 0.0 0.0 0.00 0.00 0.00 99 1016.1
20260510094503 70 270 0.0 0.0 0.00 0.00 0.00 99 1016.3
20260510093959 70 271 0.0 0.0 0.00 0.00 0.00 99 1016.3
20260510093455 70 271 0.0 0.0 0.00 0.00 0.00 99 1016.3
20260510092951 70 270 0.0 0.0 0.00 0.00 0.00 99 1016.2
20260510092449 70 270 0.0 0.0 0.00 0.00 0.00 99 1015.8
20260510091949 70 270 0.0 0.0 0.00 0.00 0.00 99 1015.9
20260510091446 70 270 0.0 0.0 0.00 0.00 0.00 99 1016.0
20260510090942 70 270 0.0 0.0 0.00 0.00 0.00 99 1015.9
20260510090439 70 270 0.0 0.0 0.00 0.00 0.00 99 1015.8
20260510085934 70 270 0.0 0.0 0.00 0.00 0.00 99 1015.8
20260510085430 70 270 0.0 0.0 0.00 0.00 0.00 99 1015.8
20260510084925 70 270 0.0 0.0 0.00 0.00 0.00 99 1015.5
20260510084423 70 270 0.0 0.0 0.00 0.00 0.00 99 1015.6
20260510083920 70 270 0.0 0.0 0.00 0.00 0.00 99 1015.5
20260510083416 70 270 0.0 0.0 0.00 0.00 0.00 99 1015.5
20260510082911 70 270 0.0 0.0 0.00 0.00 0.00 99 1015.6
20260510082409 70 270 0.0 0.0 0.00 0.00 0.00 99 1015.5
20260510081907 70 270 0.0 0.0 0.00 0.00 0.00 99 1015.3
20260510081403 70 270 0.0 0.0 0.00 0.00 0.00 99 1015.3
20260510080901 70 270 0.0 0.0 0.00 0.00 0.00 99 1015.4
20260510080354 70 270 0.0 0.0 0.00 0.00 0.00 99 1015.7
20260510075852 70 270 0.0 0.0 0.00 0.00 0.00 99 1015.6
20260510075349 70 270 0.0 0.0 0.00 0.00 0.00 99 1015.7
20260510074845 70 270 0.0 0.0 0.00 0.00 0.00 99 1015.5
20260510074343 70 270 0.0 0.0 0.00 0.00 0.00 99 1015.6
20260510073839 70 270 0.0 0.0 0.00 0.00 0.00 99 1015.5
20260510073335 70 270 0.0 0.0 0.00 0.00 0.00 99 1015.4
20260510072831 70 270 0.0 0.0 0.00 0.00 0.00 99 1015.3
20260510072328 70 270 0.0 0.0 0.00 0.00 0.00 99 1015.3
20260510071824 70 270 0.0 0.0 0.00 0.00 0.00 98 1015.3
20260510071320 70 270 0.0 0.0 0.00 0.00 0.00 98 1015.3
20260510070820 70 270 0.0 0.0 0.00 0.00 0.00 99 1015.2
20260510070311 70 270 0.0 0.0 0.00 0.00 0.00 99 1015.4
20260510065810 70 270 0.0 0.0 0.00 0.00 0.00 99 1015.3
20260510065308 70 270 0.0 0.0 0.00 0.00 0.00 98 1015.3
20260510064804 70 270 0.0 0.0 0.00 0.00 0.00 99 1015.5
20260510064302 70 270 0.0 0.0 0.00 0.00 0.00 99 1015.5
20260510063757 70 270 0.0 0.0 0.00 0.00 0.00 99 1015.3
20260510063254 70 270 0.0 0.0 0.00 0.00 0.00 98 1015.6
20260510062750 70 270 0.0 0.0 0.00 0.00 0.00 98 1015.7
20260510062246 70 270 0.0 0.0 0.00 0.00 0.00 98 1015.6
20260510061742 70 270 0.0 0.0 0.00 0.00 0.00 98 1015.7
20260510061239 70 270 0.0 0.0 0.00 0.00 0.00 98 1015.7
20260510060735 70 270 0.0 0.0 0.00 0.00 0.00 98 1015.8
20260510060232 70 270 0.0 0.0 0.00 0.00 0.00 98 1015.7
20260510055729 70 270 0.0 0.0 0.00 0.00 0.00 98 1015.9
20260510055227 70 270 0.0 0.0 0.00 0.00 0.00 98 1016.1
20260510054721 70 270 0.0 0.0 0.00 0.00 0.00 98 1016.1
20260510054218 70 270 0.0 0.0 0.00 0.00 0.00 98 1016.2
20260510053717 70 270 0.0 0.0 0.00 0.00 0.00 98 1016.2
20260510053214 70 270 0.0 0.0 0.00 0.00 0.00 98 1016.3
20260510052710 70 270 0.0 0.0 0.00 0.00 0.00 98 1016.3
20260510052206 70 270 0.0 0.0 0.00 0.00 0.00 98 1016.5
20260510051702 70 270 0.0 0.0 0.00 0.00 0.00 98 1016.5
20260510051158 70 270 0.0 0.0 0.00 0.00 0.00 98 1016.6
20260510050656 70 270 0.0 0.0 0.00 0.00 0.00 98 1016.7
20260510050153 70 269 0.0 0.0 0.00 0.00 0.00 98 1017.1
20260510045649 70 267 0.0 0.0 0.00 0.00 0.00 98 1017.0
20260510045146 70 267 0.0 0.0 0.00 0.00 0.00 98 1016.8
20260510044642 70 269 0.0 0.0 0.00 0.00 0.00 98 1017.0
20260510044140 70 270 0.0 0.0 0.00 0.00 0.00 98 1016.9
20260510043635 70 267 0.0 0.0 0.00 0.00 0.00 98 1016.9
20260510043132 70 267 0.0 0.0 0.00 0.00 0.00 98 1016.9
20260510042630 70 267 0.0 0.0 0.00 0.00 0.00 98 1017.0
20260510042125 70 267 0.0 0.0 0.00 0.00 0.00 98 1016.9
20260510041623 70 267 0.0 0.0 0.00 0.00 0.00 98 1016.9
20260510041120 70 267 0.0 0.0 0.00 0.00 0.00 98 1016.9
20260510040617 70 267 0.0 0.0 0.00 0.00 0.00 98 1016.8
20260510040114 71 267 0.0 0.0 0.00 0.00 0.00 98 1017.0
20260510035609 71 267 0.0 0.0 0.00 0.27 0.27 98 1017.0
20260510035104 71 267 0.0 0.0 0.00 0.27 0.27 98 1016.8
20260510034602 71 269 0.0 0.0 0.00 0.27 0.27 98 1016.9
20260510034059 71 270 0.0 0.0 0.00 0.27 0.27 98 1016.9
20260510033555 71 270 0.0 0.0 0.00 0.27 0.27 98 1016.9
20260510033053 71 267 0.0 0.0 0.00 0.27 0.27 98 1017.1
20260510032549 71 267 0.0 0.0 0.00 0.27 0.27 98 1017.0
20260510032044 71 266 0.0 0.0 0.00 0.27 0.27 98 1017.3
20260510031544 71 267 0.0 0.0 0.00 0.27 0.27 98 1017.0
20260510031040 71 266 0.0 0.0 0.00 0.27 0.27 98 1017.1
20260510030536 71 266 0.0 0.0 0.00 0.27 0.27 98 1017.0
20260510030034 71 268 0.0 0.0 0.00 0.27 0.27 98 1017.0
20260510025531 71 270 0.0 0.0 0.00 0.27 0.27 98 1016.9
20260510025028 71 269 0.0 0.0 0.00 0.27 0.27 98 1016.7
20260510024525 71 269 0.0 0.0 0.00 0.27 0.27 98 1017.0
20260510024021 71 270 0.0 0.0 0.00 0.27 0.27 98 1016.4
20260510023517 71 268 0.0 0.0 0.00 0.27 0.27 98 1016.6
20260510023015 71 268 0.0 0.0 0.00 0.27 0.27 98 1016.4
20260510022514 71 268 0.0 0.0 0.00 0.27 0.27 98 1016.3
20260510022013 71 266 0.0 0.0 0.00 0.27 0.27 98 1016.5
20260510021510 71 269 0.0 0.0 0.00 0.27 0.27 98 1016.1
20260510021008 71 269 0.0 0.0 0.00 0.27 0.27 98 1016.2
20260510020503 71 269 0.0 0.0 0.00 0.27 0.27 98 1016.1
20260510015958 71 268 0.0 0.0 0.00 0.27 0.27 98 1016.1
20260510015454 71 268 0.0 0.0 0.00 0.27 0.27 98 1016.0
20260510014949 71 273 0.0 0.0 0.00 0.27 0.27 98 1015.8
20260510014448 71 273 0.0 0.0 0.00 0.27 0.27 98 1015.7
20260510013944 71 273 0.0 0.0 0.00 0.27 0.27 98 1015.7
20260510013438 71 273 0.0 0.0 0.00 0.27 0.27 98 1015.7
20260510012934 71 273 0.0 0.0 0.00 0.27 0.27 98 1015.7
20260510012430 71 273 0.0 0.0 0.00 0.27 0.27 98 1015.8
20260510011925 71 273 0.0 0.0 0.00 0.27 0.27 98 1015.6
20260510011419 71 274 0.0 0.0 0.00 0.27 0.27 98 1015.5
20260510010916 71 274 0.0 0.0 0.00 0.27 0.27 98 1015.8
20260510010414 71 274 0.0 0.0 0.00 0.27 0.27 98 1015.6
20260510005910 71 274 0.0 0.0 0.00 0.27 0.27 98 1015.8
20260510005406 71 274 0.0 0.0 0.00 0.27 0.27 98 1015.6
20260510004904 71 274 0.0 0.0 0.00 0.27 0.27 98 1015.9
20260510004402 71 274 0.0 0.0 0.00 0.27 0.27 98 1015.6
20260510003859 71 274 0.0 0.0 0.00 0.27 0.27 98 1015.7
20260510003355 71 274 0.0 0.0 0.00 0.27 0.27 97 1015.9
20260510002854 71 269 0.0 0.0 0.00 0.27 0.27 98 1015.9
20260510002352 71 271 0.0 0.0 0.00 0.27 0.27 97 1015.9
20260510001848 71 271 0.0 0.0 0.07 0.27 0.27 97 1015.9
20260510001346 71 269 0.0 0.0 0.07 0.27 0.27 97 1016.1
20260510000842 71 270 0.0 0.0 0.00 0.26 0.26 97 1016.1
20260510000341 71 270 0.0 0.0 0.00 0.26 0.26 97 1015.8
20260509235836 71 269 0.0 0.0 0.00 0.26 0.26 97 1016.1
20260509235333 71 269 0.0 0.0 0.00 0.26 0.26 97 1016.3
20260509234829 71 274 0.0 0.0 0.05 0.26 0.26 97 1016.3
20260509234326 71 274 0.0 0.0 0.05 0.26 0.26 97 1016.0
20260509233824 71 274 0.0 0.0 0.00 0.25 0.25 97 1015.9
20260509233322 71 274 0.0 0.0 0.00 0.25 0.25 97 1015.9
20260509232817 71 274 0.0 0.0 0.00 0.25 0.25 97 1015.9
20260509232315 71 274 0.0 0.0 0.00 0.25 0.25 97 1016.0
20260509231811 71 274 0.0 0.0 0.00 0.25 0.25 97 1016.0
20260509231308 71 274 0.0 0.0 0.00 0.25 0.25 97 1016.1
20260509230806 71 273 0.0 0.0 0.00 0.25 0.25 96 1015.9
20260509230302 71 333 0.0 0.0 0.00 0.25 0.25 96 1016.0
20260509225757 71 270 0.0 0.0 0.00 0.25 0.25 96 1015.7
20260509225254 71 270 0.0 0.0 0.00 0.25 0.25 96 1015.9
20260509224749 71 269 0.0 0.0 0.00 0.25 0.25 96 1016.0
20260509224247 72 274 0.0 0.0 0.00 0.25 0.25 96 1016.0
20260509223744 72 274 0.0 0.0 0.00 0.25 0.25 96 1015.8
20260509223241 72 333 0.0 0.0 0.00 0.25 0.25 96 1016.0
20260509222737 72 272 0.0 0.0 0.00 0.25 0.25 96 1015.6
20260509222233 72 267 0.0 0.0 0.00 0.25 0.25 96 1015.9
20260509221728 72 277 0.0 0.0 0.00 0.25 0.25 96 1015.8
20260509221225 72 283 0.0 0.0 0.07 0.25 0.25 96 1015.8
20260509220721 72 280 0.0 0.0 0.14 0.25 0.25 96 1015.8
20260509220218 73 279 0.0 0.0 0.07 0.24 0.24 96 1015.9
20260509215713 73 282 0.0 0.0 0.00 0.23 0.23 96 1015.7
20260509215210 73 276 0.0 0.0 0.00 0.23 0.23 96 1015.6
20260509214707 73 269 0.0 0.0 0.00 0.23 0.23 96 1015.8
20260509214204 73 276 0.0 0.0 0.00 0.23 0.23 96 1015.6
20260509213701 73 267 0.0 0.0 0.00 0.23 0.23 95 1015.5
20260509213156 74 274 0.0 0.0 0.00 0.23 0.23 96 1015.7
20260509212654 74 273 0.0 0.0 0.00 0.23 0.23 96 1015.4
20260509212151 74 269 0.0 0.0 0.00 0.23 0.23 96 1015.5
20260509211647 74 268 0.0 0.0 0.00 0.23 0.23 96 1015.5
20260509211144 73 270 0.0 0.0 0.00 0.23 0.23 95 1015.5
20260509210641 73 268 0.0 0.0 0.00 0.23 0.23 95 1015.4
20260509210138 73 280 0.0 0.9 0.00 0.23 0.23 95 1015.5
20260509205632 74 266 0.0 0.0 0.00 0.23 0.23 95 1015.4
20260509205126 74 270 0.0 0.9 0.00 0.23 0.23 96 1015.5
20260509204617 75 270 0.0 0.0 0.00 0.23 0.23 95 1015.4
20260509204114 75 267 0.0 0.0 0.00 0.23 0.23 94 1015.4
20260509203610 75 276 0.0 0.0 0.00 0.23 0.23 94 1015.1
20260509203109 74 274 0.0 0.0 0.00 0.23 0.23 94 1015.5
20260509202603 74 286 0.0 0.0 0.00 0.23 0.23 94 1015.2
20260509202058 75 274 0.0 0.0 0.12 0.23 0.23 95 1015.2
20260509201553 75 273 0.0 0.0 0.12 0.23 0.23 94 1015.3
20260509201051 75 271 0.0 0.0 0.00 0.21 0.21 94 1015.4
20260509200550 75 286 0.0 0.0 0.00 0.21 0.21 94 1015.3
20260509200047 75 290 0.0 0.9 0.00 0.21 0.21 94 1015.1
20260509195543 75 267 0.0 0.0 0.00 0.21 0.21 95 1015.2
20260509195038 75 333 0.0 0.0 0.05 0.21 0.21 95 1015.3
20260509194532 75 289 0.0 0.0 0.59 0.21 0.21 95 1015.3
20260509194025 75 252 0.9 1.7 0.90 0.19 0.19 95 1015.3
20260509193525 75 296 0.0 0.0 0.12 0.06 0.06 94 1015.9
20260509193022 75 267 0.0 0.0 0.00 0.04 0.04 94 1015.4
20260509192518 76 269 0.0 0.0 0.00 0.04 0.04 94 1015.4
20260509192013 76 266 0.0 0.0 0.00 0.04 0.04 93 1015.5
20260509191508 76 280 0.0 0.0 0.00 0.04 0.04 93 1015.5
20260509191004 76 281 0.0 0.0 0.00 0.04 0.04 93 1015.4
20260509190501 77 284 0.0 0.0 0.05 0.04 0.04 92 1015.2
20260509185959 77 275 0.0 0.0 0.12 0.04 0.04 92 1015.4
20260509185456 77 327 0.0 0.0 0.12 0.03 0.03 91 1015.2
20260509184952 78 266 0.0 0.0 0.05 0.02 0.02 89 1015.1
20260509184450 78 265 0.0 0.0 0.00 0.01 0.01 86 1015.3
20260509183946 79 266 0.0 0.0 0.00 0.01 0.01 83 1015.3
20260509183441 79 272 1.7 1.7 0.00 0.01 0.01 80 1015.5
20260509182938 79 262 0.0 0.0 0.00 0.01 0.01 79 1015.4
20260509182434 80 266 0.0 0.0 0.00 0.01 0.01 78 1015.5
20260509181931 80 261 0.0 0.9 0.00 0.01 0.01 78 1015.5
20260509181430 80 268 0.9 0.9 0.00 0.01 0.01 78 1015.7
20260509180926 80 262 0.0 0.9 0.00 0.01 0.01 77 1015.6
20260509180421 80 294 0.9 0.9 0.00 0.01 0.01 78 1015.5
20260509175919 80 262 0.9 0.9 0.00 0.01 0.01 77 1015.7
20260509175415 80 279 0.0 0.0 0.00 0.01 0.01 79 1015.7
20260509174911 80 277 0.9 1.7 0.00 0.01 0.01 77 1015.8
20260509174408 80 280 3.5 4.3 0.00 0.01 0.01 76 1015.7
20260509173903 80 265 0.0 0.9 0.00 0.01 0.01 75 1015.8
20260509173358 80 240 1.7 1.7 0.00 0.01 0.01 75 1015.8
20260509172854 80 311 0.9 0.9 0.00 0.01 0.01 76 1015.7
20260509172351 80 253 2.6 2.6 0.00 0.01 0.01 75 1015.6
20260509171847 81 278 1.7 1.7 0.00 0.01 0.01 75 1015.9
20260509171337 81 262 0.9 1.7 0.00 0.01 0.01 77 1015.9
20260509170834 80 247 1.7 1.7 0.00 0.01 0.01 77 1015.8
20260509170330 80 255 0.9 0.9 0.00 0.01 0.01 77 1015.8
20260509165830 80 263 0.9 0.9 0.00 0.01 0.01 78 1015.7
20260509165325 80 264 0.0 0.0 0.00 0.01 0.01 78 1015.6
20260509164821 79 265 0.9 0.9 0.00 0.01 0.01 79 1015.8
20260509164317 79 247 0.9 0.9 0.00 0.01 0.01 78 1016.0
20260509163814 79 273 0.0 0.0 0.00 0.01 0.01 79 1015.9
20260509163310 79 281 0.0 0.9 0.00 0.01 0.01 81 1015.8
20260509162809 79 270 0.9 0.9 0.00 0.01 0.01 81 1016.2
20260509162306 79 286 0.9 0.9 0.00 0.01 0.01 81 1016.3
20260509161759 78 283 0.0 0.0 0.00 0.01 0.01 81 1015.9
20260509161255 78 281 0.0 0.0 0.00 0.01 0.01 83 1015.9
20260509160751 78 274 0.0 0.0 0.00 0.01 0.01 82 1016.1
20260509160247 78 274 0.0 0.0 0.00 0.01 0.01 83 1016.0
20260509155742 78 276 0.0 0.0 0.00 0.01 0.01 82 1016.3
20260509155239 78 275 1.7 1.7 0.00 0.01 0.01 82 1016.2
20260509154735 78 276 0.0 0.0 0.00 0.01 0.01 83 1016.1
20260509154232 78 260 0.0 0.0 0.00 0.01 0.01 83 1016.1
20260509153730 78 265 0.0 0.9 0.00 0.01 0.01 82 1016.1
20260509153225 77 316 0.9 0.9 0.00 0.01 0.01 83 1016.1
20260509152722 77 327 0.0 0.0 0.00 0.01 0.01 84 1016.0
20260509152219 77 270 0.0 0.0 0.00 0.01 0.01 86 1015.9
20260509151716 76 269 0.0 0.0 0.00 0.01 0.01 86 1016.1
20260509151213 76 277 0.0 0.0 0.00 0.01 0.01 85 1016.0
20260509150710 76 290 0.0 0.0 0.00 0.01 0.01 87 1016.0
20260509150209 77 302 0.0 0.0 0.00 0.01 0.01 84 1016.2
20260509145704 77 296 0.0 0.0 0.00 0.01 0.01 84 1016.2
20260509145159 77 292 0.9 1.7 0.00 0.01 0.01 83 1016.4
20260509144650 77 292 0.0 0.9 0.00 0.01 0.01 84 1016.5
20260509144148 77 266 0.0 0.0 0.00 0.01 0.01 84 1016.1
20260509143645 77 251 0.9 0.9 0.00 0.01 0.01 84 1016.3
20260509143142 76 276 0.9 1.7 0.00 0.01 0.01 84 1016.1
20260509142638 76 290 0.9 0.9 0.00 0.01 0.01 85 1016.2
20260509142135 76 265 0.0 0.0 0.00 0.01 0.01 86 1016.1
20260509141630 76 326 1.7 1.7 0.00 0.01 0.01 85 1016.0
20260509141126 76 265 0.0 0.0 0.00 0.01 0.01 87 1016.0
20260509140624 75 333 0.9 0.9 0.00 0.01 0.01 87 1016.1
20260509140121 75 292 0.9 0.9 0.00 0.01 0.01 88 1016.1
20260509135618 75 261 1.7 1.7 0.00 0.01 0.01 89 1016.3
20260509135117 75 292 0.9 1.7 0.00 0.01 0.01 89 1016.3
20260509134613 75 274 0.0 0.0 0.00 0.01 0.01 89 1016.2
20260509134110 75 286 0.9 0.9 0.00 0.01 0.01 89 1016.2
20260509133607 75 286 0.9 0.9 0.00 0.01 0.01 89 1016.1
20260509133105 75 324 0.9 0.9 0.00 0.01 0.01 89 1016.1
20260509132603 75 303 0.0 0.9 0.00 0.01 0.01 90 1015.8
20260509132101 75 288 0.0 0.9 0.00 0.01 0.01 89 1015.6
20260509131551 75 273 0.0 0.9 0.00 0.01 0.01 89 1015.3
20260509131048 74 267 0.9 0.9 0.00 0.01 0.01 89 1015.7
20260509130544 74 268 0.9 0.9 0.00 0.01 0.01 89 1015.6
20260509130041 74 271 0.0 0.0 0.00 0.01 0.01 90 1015.6
20260509125537 74 273 0.0 0.0 0.00 0.01 0.01 90 1015.6
20260509125034 73 270 0.0 0.0 0.00 0.01 0.01 91 1015.3
20260509124530 73 269 0.0 0.0 0.00 0.01 0.01 91 1015.5
20260509124028 73 254 1.7 1.7 0.00 0.01 0.01 91 1015.3
20260509123526 73 275 0.0 0.0 0.00 0.01 0.01 92 1015.1